Regional Weather Roundup
Issued by NWS Sioux Falls, SD

Home | Current Version | Previous Version | Text Only | Print | Product List | Glossary On
Versions: 1 2 3 4 5 6 7 8 9 10 11 12 13 14 15 16 17 18 19 20 21 22 23 24 25 26 27 28 29 30 31 32 33 34 35 36 37 38 39 40 41 42 43 44 45 46 47 48 49 50
000
ASUS43 KFSD 290810
RWRFSD

WEATHER ROUNDUP FOR SE SOUTH DAKOTA/SW MINNESOTA/NW IOWA
NATIONAL WEATHER SERVICE SIOUX FALLS SD
300 AM CDT SUN MAR 29 2015

NOTE: "FAIR" INDICATES FEW OR NO CLOUDS BELOW 12,000 FEET WITH NO
SIGNIFICANT WEATHER AND OR OBSTRUCTIONS TO VISIBILITY.


SDZ038>040-050-052>070-290900-
SOUTHEAST SOUTH DAKOTA

CITY           SKY/WX    TMP DP  RH WIND       PRES   REMARKS
CHAMBERLAIN    CLEAR     51  39  64 W12G18    29.77R
HURON          CLEAR     45  34  65 W9        29.68R
MADISON        FAIR      39  34  81 S16       29.69F
MITCHELL       CLEAR     47  35  63 W5        29.69R
SIOUX FALLS    CLOUDY    44  32  62 S17G30    29.72R
WINNER         FAIR      52  35  52 W13       29.81R
YANKTON        CLOUDY    48  34  57 S22G30    29.73F
$$

MNZ071-072-080-081-089-090-097-098-290900-
SOUTHWEST MINNESOTA

CITY           SKY/WX    TMP DP  RH WIND       PRES   REMARKS
FAIRMONT       MOCLDY    37  27  65 S28G33    29.82R
JACKSON        RAIN      37  30  75 S23G35    29.77F
LUVERNE        CLOUDY    41  32  70 S20       29.75R
MARSHALL       CLOUDY    43  30  61 SW35G44   29.65S
MONTEVIDEO     CLOUDY    41  34  75 SW14      29.69F
PIPESTONE      CLOUDY    39  32  75 S18G26    29.72S
REDWOOD FALLS  LGT RAIN  40  32  73 S20       29.73S
TRACY          DRIZZLE   41  33  72 S29G40    29.65F
WINDOM         DRIZZLE   39  30  70 S23G30    29.74F
WORTHINGTON    CLOUDY    39  30  70 S24G31    29.75S
$$

IAZ001>003-012>014-020>022-031-032-NEZ013-014-SDZ071-290900-
NORTHWEST IOWA

CITY           SKY/WX    TMP DP  RH WIND       PRES   REMARKS
CHEROKEE       CLOUDY    39  34  81 S17G25    29.81F
DENISON        MOCLDY    41  32  70 S18G26    29.85R
ESTHERVILLE    MOCLDY    36  28  73 S28G36    29.80F
LE MARS        CLOUDY    41  34  75 S23G33    29.77S
ORANGE CITY    CLOUDY    43  34  70 S26G35    29.76R
SHELDON        CLOUDY    39  32  75 S18G24    29.76R
SIOUX CITY     CLOUDY    45  33  63 S14G20    29.84S
SPENCER        CLOUDY    39  30  70 S23G32    29.74F
STORM LAKE     MIX PCPN  37  32  81 S25       29.78F
$$

ABBREVIATIONS USED IN REMARKS
   TC - TEMPERATURE IN CELSIUS
  WCI - WIND CHILL INDEX
   HX - HEAT INDEX
  VSB - VISIBILITY



USA.gov is the U.S. government's official web portal to all federal, state and local government web resources and services.